Weather in Snezhnogorsk

Russia / Krasnoyarsk Krai     68°05′39″N   87°47′29″E
temp.,
°C
wind,
m/s
gust,
m/s
humid.,
%
clouds,
%
prec.,
mm/h
press.,
hPa
HPBL,
m
4 march, thu
thu401:00−31ene447665 0.0 102159
04:00−31ene577787 0.0 101981
07:00−29ene677789 0.0 1018130
10:00−27ene5779100 0.0 1016151
13:00−22e5990100 0.1 1014417
16:00−20se61096100 0.3 1013550
19:00−22se61197100 0.7 1013489
22:00−21se61195100 0.4 1012377
5 march, fri
fri501:00−21se51190100 0.5 1012321
04:00−21ese4987100 0.1 1011230
07:00−22e4487100 0.1 101179
10:00−21ene4686100 0.0 1011159
13:00−20ene5687100 0.0 1010216
16:00−19ene688792 0.0 1008188
19:00−22ne588993 0.0 1009111
22:00−23ne698772 0.0 1007123
6 march, sat
sat601:00−24ne698586 0.0 1006125
04:00−24ne61085100 0.0 1005140
07:00−24ne6985100 0.0 1004138
10:00−22ne6985100 0.0 1003159
13:00−19ne6886100 0.0 1002187
16:00−18ne5788100 0.0 1002173
19:00−17ne4697100 0.2 1002142
22:00−16ene4597100 0.4 1002110
7 march, sun
sun701:00−15ene3597100 0.8 1002104
04:00−14e2396100 0.6 100268
07:00−15ese2395100 0.9 100239
10:00−13ese3595100 0.3 1002171
13:00−11sse4693100 0.4 1003419
16:00−10sse349498 0.3 1003309
19:00−13ese229498 0.6 100320
22:00−14ese129198 0.1 100320
8 march, mon
mon801:00−16ene229696 0.1 100220
04:00−17ne339696 0.0 100125
07:00−17ne359498 0.1 100186
10:00−16ne3496100 0.1 1000141
13:00−15ne2292100 0.3 1000178
16:00−14nnw119299 0.1 1001187
19:00−16w119799 0.3 100220
22:00−17wnw239796 0.1 100340